Location: Kalamazoo
(42.2920°N, 85.5870°W)
Time: 12:58:59
(UTC-04:00)

Daily predictions for brighter satellites

Satellite Brightness Start Highest point End
(mag) Time Altitude Azimuth Time Altitude Azimuth Time Altitude Azimuth
SL-19 R/B 4.5 19:41:32 10° SSE 19:47:05 62° ENE 19:53:02 10° N
Helios 1A 4.2 19:48:16 10° ESE 19:51:31 22° ENE 19:54:47 10° NNE
Spot 2 Rocket 4.3 19:47:28 10° SE 19:51:50 30° ENE 19:56:12 10° N
ISS -1.5 19:49:49 10° S 19:51:58 17° SE 19:54:07 10° E
Okean 3 Rocket 3.8 19:52:06 10° N 19:56:41 81° W 20:01:13 10° S
Cosmos 1544 4.5 19:54:14 10° SE 19:56:57 19° E 19:59:42 10° NE
Timation 1 Rocket 4.4 19:52:13 10° NNW 19:58:14 86° ENE 20:04:12 10° SSE
SL-8 R/B 4.4 19:55:10 10° SSW 19:59:33 36° SE 20:03:55 10° ENE
Cosmos 2056 Rocket 4.2 19:54:21 10° NNW 19:59:44 63° WSW 20:05:03 10° S
SL-16 R/B 2.4 19:56:42 10° SSW 20:02:23 79° WNW 20:08:07 10° NNE
SAR-Lupe-4 3.5 19:59:58 10° SSE 20:03:32 69° ENE 20:07:06 10° N
Cosmos 1766 3.3 20:01:01 10° S 20:04:58 89° E 20:09:00 10° N
Resurs 01 Rocket 2.2 20:02:36 10° SE 20:06:40 36° ENE 20:10:46 10° N
Cosmos 1378 3.3 20:03:46 10° N 20:07:31 80° W 20:11:14 10° S
HJ-1C 4.1 20:07:19 10° SE 20:10:22 33° ENE 20:13:26 10° N
USA 215 3.7 20:08:43 10° ENE 20:14:48 40° SE 20:20:51 10° SSW
FENGYUN 3A 4.5 20:11:40 10° SE 20:16:17 30° ENE 20:20:56 10° N
COSMO-SKYMED 1 3.6 20:16:13 10° N 20:20:26 50° WNW 20:24:38 10° SSW
Meteor 1-28 Rocket 3.1 20:18:41 10° NNE 20:22:25 82° ESE 20:26:08 10° S
Nadezhda 4 Rocket 4.2 20:17:27 10° N 20:23:32 49° ENE 20:29:30 10° SSE
FREGAT/IRIS 2.5 20:20:28 10° SSE 20:23:32 82° ENE 20:26:39 10° N
Helios 1B rocket 2.7 20:19:52 10° NNE 20:23:48 43° E 20:27:44 10° S
Abrixas 2.7 20:22:20 10° SW 20:25:15 50° SSE 20:26:59 21° ENE
H-2A R/B 3.9 20:28:07 19° ESE 20:29:45 25° ENE 20:32:56 10° NNE
GP-B 4.4 20:26:41 10° NE 20:29:56 20° E 20:30:36 19° E
Cosmos 1805 3.2 20:28:14 10° S 20:32:10 82° E 20:36:08 10° N
Cosmos 1092 Rocket 4.3 20:26:37 10° N 20:32:28 42° ENE 20:38:15 10° SE
CZ-4B DEB 3.7 20:31:57 23° ESE 20:33:01 28° ENE 20:35:53 10° N
Cosmos 1346 3.0 20:30:26 10° N 20:33:23 57° ENE 20:36:08 11° SSE
GPS 2-04 Rocket1 4.0 20:32:47 10° SW 20:35:31 22° SSE 20:36:41 18° SE
Gbstr 26 Del rocket 3.9 20:33:04 10° SSW 20:37:04 35° SE 20:39:48 20° E
TELKOM 3 3.2 20:34:43 10° NW 20:37:31 56° NNE 20:38:02 42° ENE
Cosmos 1943 Rocket 3.6 20:34:00 10° N 20:37:58 19° NE 20:39:37 17° ENE
Cosmos 1766 Rocket 3.9 20:34:29 10° NNW 20:38:50 66° W 20:43:07 10° S
Cosmos 1076 Rocket 4.4 20:34:37 10° NNW 20:38:51 53° W 20:43:04 10° S
Cosmos 1953 2.4 20:35:42 10° S 20:39:41 80° W 20:43:41 10° N
Meteor 1-29 3.0 20:38:05 10° NNE 20:41:34 56° E 20:44:59 10° S
Cosmos 2369 Rocket 2.7 20:36:48 10° NNW 20:42:09 41° ENE 20:45:20 22° ESE
Cosmos 1943 3.6 20:38:45 10° S 20:43:53 38° ESE 20:49:02 10° NE
Cosmos-2242 3.2 20:43:36 10° SSW 20:47:57 76° W 20:52:22 10° N
Cosmos 1634 Rocket 4.3 20:43:18 10° SSE 20:49:03 41° E 20:54:49 10° NNE
Cosmos 1603 3.8 20:44:17 10° SSW 20:50:01 85° WNW 20:55:49 10° NNE
Cosmos 2151 3.7 20:48:15 10° NNE 20:52:00 30° ENE 20:52:06 30° ENE
Cosmos 1733 3.4 20:51:02 10° SSE 20:54:43 45° E 20:58:26 10° NNE
OAO 3 Rocket 4.4 20:51:10 10° WSW 20:55:20 31° S 20:57:20 22° SSE
Cosmos 1470 2.7 20:52:50 10° S 20:56:39 60° E 21:00:30 10° NNE
Cosmos 839 Rocket 4.4 20:52:37 10° NNW 21:00:20 58° NE 21:03:47 29° ESE
Cosmos 1674 2.6 21:00:05 10° N 21:03:59 87° E 21:06:19 23° S
ASTEX 1 3.2 20:59:13 10° N 21:04:08 71° E 21:08:59 10° S
Cosmos 1500 Rocket 3.5 21:07:00 10° N 21:11:27 85° W 21:14:49 17° S
Cosmos 1842 Rocket 3.5 21:07:55 10° S 21:12:14 86° W 21:16:38 10° N
Cosmos 1331 Rocket 4.4 21:12:01 10° N 21:17:04 42° ENE 21:17:26 42° ENE
CENTAUR R/B 2.4 21:13:03 10° SSW 21:19:04 74° ESE 21:25:52 10° NE
ATLAS 5 CENTAUR R/B 3.6 21:16:49 10° WSW 21:21:08 31° NW 21:25:50 10° NNE
Meteor 1-16 Rocket 4.0 21:22:42 43° SE 21:24:06 57° E 21:29:19 10° NNE
ERBS 4.3 21:21:11 10° NNW 21:23:13 22° N 21:23:13 22° N
ALOS 2.7 21:20:32 14° S 21:24:29 63° W 21:29:08 10° NNW
ISS -2.3 21:24:55 10° WSW 21:27:23 44° W 21:27:23 44° W
Meteor 1-11 4.2 21:25:51 10° N 21:31:38 65° ENE 21:32:39 55° SE
Cosmos 1627 Rocket 4.4 21:28:42 10° N 21:34:57 81° E 21:37:44 36° SSE
Envisat 3.7 21:42:35 41° NNE 21:42:35 41° NNE 21:46:20 10° N
SL-8 R/B 3.9 21:37:11 10° WSW 21:41:56 64° NNW 21:42:21 61° N
Resurs 01 Rocket 4.1 21:39:50 10° SW 21:43:14 21° W 21:46:39 10° NW
USA 215 3.6 21:53:08 19° NE 21:57:59 63° NW 22:04:25 10° WSW
GP-B 4.5 22:03:16 10° NNW 22:07:22 37° W 22:08:06 34° WSW
Cosmos 2279 Rocket 3.9 22:09:41 70° SW 22:10:23 80° W 22:16:37 10° N
ERS-1 Rocket 3.8 22:15:36 48° NNW 22:15:36 48° NNW 22:19:17 10° NNW
Cosmos 1943 Rocket 2.7 22:16:43 10° NNW 22:21:10 55° NW 22:21:10 55° NW
Cosmos 2369 Rocket 3.7 22:21:09 10° NW 22:25:59 30° WSW 22:27:10 27° SW
CZ-3A R/B 4.3 21:52:53 10° SSW 22:27:04 64° SE 22:27:52 62° ESE
CENTAUR R/B 4.3 23:05:04 10° W 23:10:29 28° NW 23:16:27 10° NNE
